Lexington Weather

Lexington, Massachusetts, USA

44°F
5/12/2021 4:26am 
  • Lexington Conditions: Clear
  • Temperature: 44.4°F / 6.9°CColder 0.7°F than last hour.
  • Dew Point: 33.1°FIncreased 1.1°Fsince last hour.
  • Relative Humidity: 64%Increased 4.0% since last hour.
  • Wind: Wind from WNW WNW 1 mph, 10-min avg: 1 mph, gust: 3 mph
  • Barometer: 29.92 in Steady
  • Visibility: 10 miles
  • Rain Today: 0.00 in
  •   

Regional Weather Roundup
for Boston / Norton, MA

        
000
ASUS41 KBOX 112204
RWRBOX

REGIONAL WEATHER ROUNDUP
NATIONAL WEATHER SERVICE BOSTON/NORTON MA
600 PM EDT TUE MAY 11 2021

NOTE:  "FAIR" INDICATES FEW OR NO CLOUDS BELOW 12,000 FEET WITH NO 
SIGNIFICANT WEATHER AND/OR OBSTRUCTIONS TO VISIBILITY.

MAZALL-112300-
EASTERN MASSACHUSETTS
  
CITY           SKY/WX    TMP DP  RH WIND       PRES   REMARKS
BOSTON         MOSUNNY   64  22  20 W21G33    29.91R                  
BEVERLY        MOSUNNY   60  19  20 W16G25    29.89R                  
LAWRENCE       PTSUNNY   61  23  23 W17G26    29.90S                  
BEDFORD        MOSUNNY   61  22  22 W14G30    29.90R                  
BLUE HILL        N/A     59  24  26 W18G33    29.90R                  
NORWOOD        SUNNY     63  25  23 W16G22    29.91S                  
MARSHFIELD     MOSUNNY   63  25  23 W8G21     29.90S                  
PLYMOUTH       PTSUNNY   63  26  24 W15G22    29.91R                  
TAUNTON        MOSUNNY   61  25  25 NW10G21   29.91S                  
NEW BEDFORD    MOSUNNY   63  25  23 W17G25    29.92R                  
$$

MAZALL-112300-
CAPE COD AND THE ISLANDS
  
CITY           SKY/WX    TMP DP  RH WIND       PRES   REMARKS
FALMOUTH       MOSUNNY   55  39  54 SW22G29   29.93R                  
HYANNIS        PTSUNNY   61  39  44 SW18      29.91R                  
CHATHAM        MOSUNNY   57  42  57 SW14G24   29.93R                  
PROVINCETOWN   MOSUNNY   58  40  51 W9        29.91S                  
NANTUCKET      SUNNY     56  43  61 W21G30    29.95S                  
MARTHAS VNYRD  CLOUDY    57  38  48 SW15G25   29.94S                  
$$
 
MAZALL-112300-
CENTRAL AND WESTERN MASSACHUSETTS
  
CITY           SKY/WX    TMP DP  RH WIND       PRES   REMARKS
WORCESTER      SUNNY     56  23  27 W20G25    29.93S                  
FITCHBURG      SUNNY     59  23  25 W15G29    29.92S                  
ORANGE         MOSUNNY   58  21  24 NW17G28   29.95R                  
SPRINGFIELD    MOSUNNY   61  23  23 NW10      29.93F                  
WESTFIELD      MOSUNNY   60  25  26 NW20G29   29.95S                  
NORTH ADAMS    MOSUNNY   53  29  39 W15G26    29.98R                  
PITTSFIELD     PTSUNNY   51  30  44 NW12G24   29.97R                  
$$
 
RIZALL-112300-
RHODE ISLAND
  
CITY           SKY/WX    TMP DP  RH WIND       PRES   REMARKS
PROVIDENCE     PTSUNNY   62  25  24 W15G24    29.93S                  
NEWPORT        CLOUDY    54  40  59 SW9G17    29.93S                  
BLOCK ISLAND   CLOUDY    54  40  59 SW20G29   29.97R                  
SMITHFIELD     SUNNY     59  26  28 NW13      29.93S                  
WESTERLY       CLOUDY    58  35  42 SW13G23   29.94S                  
$$
 
CTZALL-112300-
CONNECTICUT
  
CITY           SKY/WX    TMP DP  RH WIND       PRES   REMARKS
BRADLEY INTL   MOSUNNY   61  24  24 W15G21    29.95S                  
HARTFORD       MOSUNNY   63  23  21 NW15G23   29.95R                  
BRIDGEPORT     CLOUDY    62  30  29 NW12G23   29.97R                  
DANBURY        CLOUDY    60  28  29 W12G18    29.99R                  
GROTON         PTSUNNY   63  29  27 W20G25    29.94S                  
NEW HAVEN      PTSUNNY   62  33  33 NW16G24   29.97R                  
CHESTER        PTSUNNY   61  25  25 VRB6G16   29.96S                  
MERIDEN        CLOUDY    62  24  23 W12G18    29.96S                  
WILLIMANTIC    MOSUNNY   61  25  25 NW9G17    29.95S                  
OXFORD         PTSUNNY   58  27  30 W10G17    29.98R                  
$$

MEZ002-015-021-024-NHZ003-005-008-011-012-014-VTZ005-008-112300-
NORTHERN NEW ENGLAND
  
CITY           SKY/WX    TMP DP  RH WIND       PRES   REMARKS
PORTLAND ME    LGT RAIN  55  33  43 NW13G20   29.86R                  
BANGOR ME      LGT RAIN  50  42  74 W12G22    29.81R                  
CONCORD NH     CLOUDY    57  21  24 W12G20    29.89R                  
MANCHESTER NH  MOSUNNY   60  17  18 W15G29    29.89R                  
NASHUA NH      MOSUNNY   60  21  22 W14G22    29.91R                  
PORTSMOUTH NH  PTSUNNY   60  17  19 W13G23    29.88R                  
JAFFREY NH     MOSUNNY   55  18  23 W13G26    29.93R                  
KEENE NH       MOSUNNY   56  20  24 W17G24    29.93S                  
BURLINGTON VT  PTSUNNY   53  30  41 W15G23    29.92R                  
MT. WASHINGTON SNOW      21  21 100 W46G54      N/A  VSB 0   WCI   0  
$$

NYZ052-076-112300-
EASTERN NEW YORK
  
CITY           SKY/WX    TMP DP  RH WIND       PRES   REMARKS
ALBANY         MOSUNNY   51  32  48 W12G26    30.00F                  
NEW YORK CITY  CLOUDY    63  32  31 NW13      29.98R                  
$$
 
ANZALL-112300-
MARINE OBSERVATIONS
  
STATION/POSITION TIME  TEMP    WIND        PRES    VSBY  WAVE
                       AIR SEA DIR/SP/G                  HT/PER
                 (UTC) (F)     (DEG/KT/KT) (MB)    (MI)  (FT/S)
BOSTON BUOY      2140   56 49  270/ 17/ 21 1012.5R
BUZZARDS BAY     2100          230/ 23/ 28 1014.7R
NANTUCKET SOUND  2140      53                N/A
MASS BAY-STELLWA 2104   56     280/ 14/ 16 1011.1R  1 7/8  3/ 4
ISLE OF SHOALS   2100   57     290/ 21/ 24 1010.5R
S OF BLOCK IS    2126      50                N/A           5/ 8
$$

......................KEY.........................
  SKY/WX - SKY CONDITION/PRESENT WEATHER
  TMP    - TEMPERATURE IN FAHRENHEIT
  DWPT   - DEWPOINT IN FAHRENHEIT
  RH     - RELATIVE HUMIDITY IN PERCENT
  WIND   - DIRECTION AND SPEED IN MPH
  PRES   - MEAN SEA LEVEL PRESSURE IN INCHES OF HG
  WCI    - WIND CHILL INDEX
  VSB    - VISIBILITY IN MILES
  HX     - HEAT INDEX
  TC     - TEMPERATURE IN CELSIUS
  VRB    - VARIABLE WIND DIRECTION
  N/A    - NOT AVAILABLE
  
      

Other recent Regional Weather Roundups

Wed May 12, 4:04am

Wed May 12, 3:04am

Wed May 12, 2:04am

Wed May 12, 1:04am

Wed May 12, 12:05am

Tue May 11, 11:05pm

Tue May 11, 10:04pm

Tue May 11, 9:05pm

Tue May 11, 8:05pm

Tue May 11, 7:04pm

Tue May 11, 5:04pm

Tue May 11, 4:05pm

Tue May 11, 3:04pm

Tue May 11, 2:05pm

Tue May 11, 1:04pm

Tue May 11, 12:05pm

Tue May 11, 11:05am

Tue May 11, 10:04am

Tue May 11, 9:04am

Tue May 11, 8:04am

Tue May 11, 7:05am

Tue May 11, 6:04am

Tue May 11, 5:04am

Tue May 11, 4:04am

Tue May 11, 3:04am

Tue May 11, 2:04am

Tue May 11, 1:04am

Tue May 11, 12:04am

Mon May 10, 11:04pm

Mon May 10, 10:04pm

Mon May 10, 9:05pm

Mon May 10, 8:04pm

Mon May 10, 7:05pm

Mon May 10, 6:04pm

Mon May 10, 5:04pm

Mon May 10, 4:04pm

Mon May 10, 3:04pm

Mon May 10, 2:04pm

Mon May 10, 1:04pm

Mon May 10, 12:04pm

Mon May 10, 11:05am

Mon May 10, 10:04am

Mon May 10, 9:04am

Mon May 10, 8:04am

Mon May 10, 7:04am

Mon May 10, 6:04am

Mon May 10, 5:05am

Mon May 10, 4:04am

Mon May 10, 3:04am

Mon May 10, 2:04am

Mon May 10, 1:04am

Mon May 10, 12:04am

Sun May 9, 11:04pm

Sun May 9, 10:04pm

Sun May 9, 9:04pm

Sun May 9, 8:04pm

Sun May 9, 7:05pm

Sun May 9, 6:04pm

Sun May 9, 5:04pm

Sun May 9, 4:04pm

Sun May 9, 3:04pm

Sun May 9, 2:04pm

Sun May 9, 1:05pm

Sun May 9, 12:04pm

Sun May 9, 11:05am

Sun May 9, 10:04am

Sun May 9, 9:04am

Sun May 9, 8:04am

Sun May 9, 7:04am

Sun May 9, 6:04am

Sun May 9, 5:04am

Sun May 9, 4:04am

Sun May 9, 3:04am

Sun May 9, 2:04am

Sun May 9, 1:05am

Sun May 9, 12:04am

Sat May 8, 11:05pm

Sat May 8, 10:04pm

Sat May 8, 9:05pm

Sat May 8, 8:04pm

Sat May 8, 7:04pm

Sat May 8, 6:04pm

Sat May 8, 5:05pm

Sat May 8, 4:04pm

Sat May 8, 3:05pm

Sat May 8, 2:05pm

Sat May 8, 1:05pm

Sat May 8, 12:04pm

Sat May 8, 11:05am

Sat May 8, 10:04am

Sat May 8, 9:04am

Sat May 8, 8:04am

Sat May 8, 7:04am

Sat May 8, 6:04am

Sat May 8, 5:04am

Sat May 8, 4:04am

Sat May 8, 3:04am

Sat May 8, 2:04am

Sat May 8, 1:05am

Sat May 8, 12:04am

Fri May 7, 11:04pm

Fri May 7, 10:05pm

Fri May 7, 9:04pm

Fri May 7, 8:04pm

Fri May 7, 7:05pm

Fri May 7, 6:04pm

Fri May 7, 5:05pm

Fri May 7, 4:04pm

Fri May 7, 3:04pm

Fri May 7, 2:05pm

Fri May 7, 1:04pm

Fri May 7, 12:04pm

Fri May 7, 11:05am

Fri May 7, 10:04am

Fri May 7, 9:04am

Fri May 7, 8:05am

Fri May 7, 7:04am

Fri May 7, 6:04am

Fri May 7, 5:04am

Fri May 7, 4:04am

Fri May 7, 3:04am

Fri May 7, 2:05am

Fri May 7, 1:04am

Fri May 7, 12:05am

Thu May 6, 11:04pm

Thu May 6, 10:04pm

Thu May 6, 9:05pm

Thu May 6, 8:04pm

Thu May 6, 7:04pm

Thu May 6, 6:04pm

Thu May 6, 5:05pm

Thu May 6, 4:04pm

Thu May 6, 3:04pm

Thu May 6, 2:05pm

Thu May 6, 1:04pm

Thu May 6, 12:04pm

Thu May 6, 11:04am

Thu May 6, 10:04am

Thu May 6, 9:04am

Thu May 6, 8:04am

Thu May 6, 7:04am

Thu May 6, 6:04am

Thu May 6, 5:04am

Thu May 6, 4:04am

Thu May 6, 3:04am

Thu May 6, 2:05am

Thu May 6, 1:04am

Thu May 6, 12:05am

Wed May 5, 11:04pm

Wed May 5, 10:04pm

Wed May 5, 9:05pm

Wed May 5, 8:04pm

Wed May 5, 7:05pm

Wed May 5, 6:04pm

Wed May 5, 5:04pm

Wed May 5, 4:04pm

Wed May 5, 3:04pm

Wed May 5, 2:05pm

Wed May 5, 1:05pm

Wed May 5, 12:04pm

Wed May 5, 11:05am

Wed May 5, 10:04am

Wed May 5, 9:04am

Wed May 5, 8:04am

Wed May 5, 7:04am

Wed May 5, 6:05am

Wed May 5, 5:04am

Meta data:

ID: 2874e2ca-2e40-4f68-9907-35ba1dcf3bd5
Link: https://api.weather.gov/products/2874e2ca-2e40-4f68-9907-35ba1dcf3bd5